www.pogodaiklimat.ru

Погода и климат >> Архив погоды >> Россия >> Приморский край >> Пограничный


АРХИВ ПОГОДЫ в Пограничном

Время (UTC), дата Ветер
(напр.,м/с)
 
Видим.   Явления Облачность Т
(С)
Тd
(С)
f
(%)
Тe
(С)
Тes
(С)
Комфортность P
(гПа)
Po
(гПа)
Тmin
(С)
Tmax
(С)
R
(мм)
R24
(мм)
S
(см)
21 17.05 штиль 0 1000 м дымка 10/0
[As trans]
+10.6 +9.9 95 +10 +10 1012.5 986.5 +10.3
00 18.05 СЗ 1 50 км {туман} 8/3 600 м
[Sc Ci fib]
+17.3 +12.1 71 +18 +26 1011.8 986.4
03 18.05 Ю 4 50 км 6/0
[As trans Ci fib]
+26.2 +10.3 37 +27 +36 жарко 1010.0 985.4
06 18.05 ЮВ 5
{11}
50 км 8/3 600 м
[Cu med, cong Ci fib]
+24.6 +12.3 46 +26 +30 жарко 1008.4 983.7
09 18.05 Ю 5-15
{15}
50 км 9/4 600 м
[Cb cap Ac lent Cs]
+25.2 +9.9 38 +26 +26 жарко 1007.0 982.4 +27.1
12 18.05 ЮВ 3
{15}
20 км 10/5 600 м
[Cb cap As trans Cs]
+20.8 +9.2 47 +23 +23 комфорт 1009.5 984.4
15 18.05 С 2 20 км 8/3 600 м
[Cb cap Ac trans Ci fib]
+12.2 +10.4 89 +11 +11 1012.3 986.4
18 18.05 СВ 1 20 км 10/4 600 м
[Cb cap As trans Cs]
+12.0 +10.8 92 +12 +12 1013.8 987.8
21 18.05 СЗ 1 20 км 10/0
[As trans Cs]
+11.3 +10.2 93 +11 +12 1013.6 987.5 +10.6
00 19.05 штиль 0 20 км 10/0
[As op]
+12.3 +10.8 91 +12 +14 1012.8 986.9
03 19.05 В 2 50 км 8/3 600 м
[Cu med, cong Ci fib]
+19.9 +13.1 65 +22 +34 комфорт 1010.4 985.2
06 19.05 Ю 7-12
{13}
50 км 9/4 600 м
[Cb cap Ac lent Ci sp]
+21.9 +12.6 56 +24 +26 комфорт 1007.1 982.2
09 19.05 ЮВ 4
{14}
10 км слаб. ливневой дождь 10/10 600 м
[Cb cap]
+16.2 +12.8 80 +15 +15 1006.6 981.2 +22.2 0.4
12 19.05 В 3
{10}
10 км слаб. дождь 10/10 600 м
[Frnb Ns]
+13.3 +12.2 93 +12 +12 1005.2 979.6
15 19.05 В 2 10 км слаб. дождь 10/10 600 м
[Frnb Ns]
+12.9 +12.1 95 +12 +12 1002.1 976.6
18 19.05 ЮВ 5 10 км слаб. дождь 10/10 600 м
[Frnb Ns]
+12.8 +11.7 93 +11 +11 997.7 972.3
21 19.05 Ю 1 2000 м дождь 10/10 600 м
[Frnb Ns]
+12.6 +11.9 95 +13 +13 994.4 969.0 +12.4 15
00 20.05 Ю 1 10 км слаб. дождь 10/10 600 м
[Frnb Ns]
+13.6 +13.0 96 +14 +14 992.4 967.2
03 20.05 ЮЗ 2 50 км {дождь} 10/10 600 м
[Sc]
+15.1 +9.9 71 +15 +15 991.5 966.3
06 20.05 Ю 1 50 км {дождь} 10/9 600 м
[Cb cap As op]
+14.3 +10.4 77 +15 +15 991.5 966.3
09 20.05 Ю 2 50 км 9/8 600 м
[Cb cap Ac trans]
+15.7 +10.6 72 +16 +16 991.3 966.2 +15.9 4
12 20.05 З 2 20 км 3/3 600 м
[Cb cap]
+10.1 +7.0 81 +9 +9 993.2 967.6
15 20.05 ЮЗ 3 20 км ясно +9.7 +4.3 69 +8 +8 993.0 967.3
18 20.05 Ю 1 20 км ясно +7.4 +4.2 80 +7 +7 993.3 967.4
21 20.05 ЮВ 2 50 км 3/3 600 м
[Sc Ci fib]
+8.7 +5.2 79 +7 +8 993.3 967.5 +5.1
00 21.05 ЮЗ 3 50 км 10/8 600 м
[Sc Cs]
+14.7 +5.7 55 +14 +15 992.0 966.8
03 21.05 Ю 5
{11}
50 км 8/8 600 м
[Cb cap Ci fib]
+18.2 +5.7 44 +18 +20 991.0 966.1
06 21.05 ЮЗ 4-10
{16}
50 км {ливн. осадки} 10/5 600 м
[Cb cap As trans Ci fib]
+16.0 +7.1 55 +15 +17 991.7 966.6
09 21.05 ЮЗ 4
{13}
50 км 10/6 600 м
[Cb cap As trans Ci]
+14.6 +5.1 53 +14 +14 993.1 967.9 +18.3 2
12 21.05 ЮЗ 4 20 км 8/5 600 м
[Cb cap As trans Ci fib]
+12.5 +4.9 60 +11 +11 994.7 969.2
15 21.05 ЮЗ 2
{10}
20 км 4/3 600 м
[Cb cap Ac lent]
+9.8 +4.6 70 +8 +8 995.5 969.8
18 21.05 З 1 20 км 8/4 600 м
[Cb cap As trans Ci fib]
+9.9 +4.8 71 +10 +10 994.8 969.1
21 21.05 З 1 50 км 10/6 600 м
[Cb cap As trans Cs]
+9.0 +5.8 80 +8 +9 995.5 969.7 +8.5
00 22.05 ЮЗ 3 50 км 8/4 600 м
[Cb cap Ac As Ci fib]
+13.5 +5.7 59 +13 +16 995.9 970.5
03 22.05 З 4 50 км 8/5 600 м
[Cb cap Ci fib]
+16.0 +5.2 49 +15 +21 995.9 970.7
06 22.05 З 3
{10}
50 км 10/6 600 м
[Cb cap As trans Cs]
+15.6 +4.9 49 +15 +17 996.4 971.2
09 22.05 З 4
{10}
50 км 8/4 600 м
[Cb cap Ac lent Ci fib]
+13.9 +4.9 55 +13 +13 998.3 972.8 +16.0
12 22.05 З 2
{10}
20 км 9/6 600 м
[Cb cap Ac lent Cs]
+11.7 +4.9 63 +11 +11 1001.0 975.3
15 22.05 З 2 20 км 4/0
[Cs]
+5.5 +4.1 91 +3 +3 1002.5 976.2
18 22.05 З 2 20 км 3/0
[Cs]
+6.2 +3.9 85 +4 +4 1003.2 977.0
21 22.05 З 2 50 км 6/0
[Ci fib]
+6.9 +4.5 85 +5 +6 1004.8 978.5 +4.8
00 23.05 В 2 50 км 4/3 600 м
[Cu med, cong Cc]
+15.2 +5.4 52 +15 +22 1004.7 979.2
03 23.05 ЮВ 2 50 км 4/4 600 м
[Cu med, cong]
+17.5 +6.8 49 +18 +29 1005.1 979.9
06 23.05 ЮВ 2 50 км 4/4 600 м
[Cu med, cong]
+19.7 +6.6 42 +21 +29 комфорт 1004.4 979.3
09 23.05 ЮВ 2 50 км 4/3 600 м
[Cu med, cong Ci fib]
+19.3 +7.7 47 +21 +22 комфорт 1004.6 979.5 +20.9
12 23.05 З 2 20 км ясно +12.8 +8.6 76 +12 +12 1007.2 981.5
15 23.05 З 2 20 км ясно +9.1 +7.6 90 +7 +7 1008.1 982.0
18 23.05 З 3 20 км 3/0
[Ci fib]
+7.0 +6.0 93 +4 +4 1008.1 981.8
21 23.05 З 2 50 км 3/0
[Ci fib]
+7.4 +5.8 90 +5 +6 1008.1 981.8 +6.1
00 24.05 Ю 1 50 км 3/0
[Ci fib]
+19.2 +9.5 53 +21 +33 комфорт 1006.9 981.7
03 24.05 ЮВ 4 50 км 9/0
[Cs]
+25.5 +7.9 33 +26 +36 жарко 1004.1 979.5
06 24.05 ЮВ 7-10
{11}
50 км 9/3 600 м
[Cb cap Ac trans Cs]
+24.9 +12.5 46 +27 +28 жарко 1001.8 977.3
09 24.05 Ю 3
{10}
50 км 8/0
[Ac trans Cs]
+23.2 +9.7 42 +25 +26 комфорт 1001.1 976.5 +27.9
12 24.05 СВ 2 20 км ясно +15.5 +8.4 63 +15 +15 1002.4 977.0
15 24.05 З 3 20 км ясно +10.6 +8.9 89 +8 +8 1002.9 977.1
18 24.05 штиль 0 20 км 10/0
[Ci fib]
+11.8 +7.9 77 +11 +11 1003.0 977.2

 

Местоположение метеостанции Пограничный (Приморский край, Россия): широта 44.40 долгота 131.30 высота над уровнем моря 211 м.

В архиве по умолчанию представлена погода в Пограничном за последнюю неделю. Архивные данные за месяц целиком и за предыдущие месяцы, начиная с января 2011 года, Вы можете получить, выбрав интересующий диапазон дат из раскрывающегося списка и нажав кнопку "Ввод!".


*Определитесь, кто Вы:
робот инопланетянин человек

Внимание! Время в таблицах - всемирное. Для получения местного времени необходимо прибавить поправку, которая равна 10 ч.

Смотрите также архив погоды в соседних городах и на ближайших метеорологических станциях:

Погода в Суйфэньхэ (Хэйлунцзян, Китай) (12 км)
Погода в Полтавке (Приморский край, Россия) (41 км)
Погода в Хороле (Приморский край, Россия) (56 км)
Погода в Астраханке (Приморский край, Россия) (66 км)
Погода в Тимирязевском (Приморский край, Россия) (75 км)
Погода в Цзиси (Хэйлунцзян, Китай) (102 км)
Погода в Турьем Роге (Приморский край, Россия) (105 км)
Погода в Спасск-Дальнем (Приморский край, Россия) (122 км)
Погода в Барабаше (Приморский край, Россия) (134 км)
Погода в Муданьцзяне (Хэйлунцзян, Китай) (136 км)

Пояснения к столбцам:

Ветер - указаны скорость ветра в м/с - средняя за 10 мин, порывы в срок и между сроками (в фигурных скобках) и направление, откуда дует ветер: С - северный, СВ - северо-восточный, В - восточный, ЮВ - юго-восточный, Ю - южный, ЮЗ - юго-западный, З - западный, СЗ - северо-западный.
Видимость - горизонтальная дальность видимости в метрах или километрах. При видимости от 1 до 10 км при отсутствии осадков обычно наблюдается дымка, при ухудшении видимости до 1 км и менее - туман. В сухую погоду видимость может ухудшаться дымом, пылью или мглою.
Явления - указаны атмосферные явления, наблюдавшиеся в срок или в последний час перед сроком; фигурными скобками обозначены явления, наблюдавшиеся между сроками (за 1-3 часа до срока); квадратными скобками обозначены град или гололедные отложения с указанием их диаметра в мм.
Облачность - указаны через наклонную черту общая и нижняя облачность в баллах и высота нижней границы облаков в метрах; квадратными скобками обозначены формы облаков: Ci - перистые, Cs - перисто-слоистые, Cc - перисто-кучевые, Ac - высококучевые, As - высокослоистые, Sc - слоисто-кучевые, Ns - слоисто-дождевые, Cu - кучевые, Cb - кучево-дождевые. Подробнее классификацию облаков см. в Атласе облаков (PDF).
T - Температура воздуха - температура, измеренная на высоте 2 м над землей.
Td - Температура точки росы - температура, при понижении до которой содержащийся в воздухе водяной пар достигнет насыщения.
f - Относительная влажность воздуха - влажноcть воздуха, измеренная на высоте 2 м над землей.
Te - Эффективная температура - температура, которую ощущает одетый по сезону человек в тени. Характеристика душности погоды. При расчете учитывается влияние влажности воздуха и скорости ветра на теплоощущения человека.
Tes - Эффективная температура на солнце - температура, которую ощущает человек, с поправкой на солнечный нагрев. Характеристика знойности погоды. Зависит от высоты солнца над горизонтом, облачности и скорости ветра. Ночью, в пасмурную погоду, а также при ветре 12 м/с и более поправка равна нулю.
P - Атмосферное давление - приведенное к уровню моря атмосферное давление.
Po - Атмосферное давление - измеренное на уровне метеостанции атмосферное давление.
Tmin - Минимальная температура - минимум температуры воздуха на высоте 2 м над землей.
Tmax - Максимальная температура - максимум температуры воздуха на высоте 2 м над землей.
R - Количество осадков - Количество выпавших осадков за период времени, мм. При наведении курсора мыши на число - период времени, за который выпало указанное количество осадков.
R24 - Количество осадков - Количество выпавших осадков за 24 часа, мм.
S - Снежный покров - Высота снежного покрова, см. При наведении курсора мыши на число - состояние снежного покрова и степень покрытия местности в баллах.